| time (UTC) | temp F | wind direction | speed knots | gust knots | rain 1hr in | rain 24hr in | rain mn in | humidity % | barometer mb |
| 20260502195734 | 44 | 201 | 0.9 | 5.2 | 0.00 | 0.00 | 0.00 | 64 | 1014.9 |
| 20260502195534 | 44 | 174 | 1.7 | 5.2 | 0.00 | 0.00 | 0.00 | 64 | 1015.0 |
| 20260502195334 | 44 | 83 | 0.9 | 5.2 | 0.00 | 0.00 | 0.00 | 63 | 1014.9 |
| 20260502195133 | 44 | 53 | 0.9 | 3.5 | 0.00 | 0.00 | 0.00 | 64 | 1014.9 |
| 20260502194933 | 44 | 162 | 0.9 | 3.5 | 0.00 | 0.00 | 0.00 | 64 | 1014.9 |
| 20260502194733 | 44 | 110 | 0.9 | 3.5 | 0.00 | 0.00 | 0.00 | 62 | 1014.9 |
| 20260502194532 | 44 | 89 | 0.9 | 2.6 | 0.00 | 0.00 | 0.00 | 60 | 1014.9 |
| 20260502194332 | 44 | 105 | 0.9 | 2.6 | 0.00 | 0.00 | 0.00 | 60 | 1014.9 |
| 20260502194132 | 44 | 105 | 0.0 | 2.6 | 0.00 | 0.00 | 0.00 | 60 | 1015.0 |
| 20260502193932 | 44 | 105 | 0.0 | 2.6 | 0.00 | 0.00 | 0.00 | 61 | 1015.0 |
| 20260502193731 | 44 | 92 | 0.9 | 2.6 | 0.00 | 0.00 | 0.00 | 61 | 1015.0 |
| 20260502193531 | 44 | 49 | 0.9 | 2.6 | 0.00 | 0.00 | 0.00 | 60 | 1015.0 |
| 20260502193331 | 44 | 289 | 0.0 | 2.6 | 0.00 | 0.00 | 0.00 | 61 | 1015.0 |
| 20260502193130 | 44 | 271 | 0.0 | 2.6 | 0.00 | 0.00 | 0.00 | 61 | 1015.1 |
| 20260502192930 | 44 | 255 | 0.9 | 6.1 | 0.00 | 0.00 | 0.00 | 62 | 1015.0 |
| 20260502192730 | 44 | 293 | 0.9 | 7.0 | 0.00 | 0.00 | 0.00 | 62 | 1015.0 |
| 20260502192529 | 44 | 323 | 0.9 | 7.0 | 0.00 | 0.00 | 0.00 | 63 | 1015.0 |
| 20260502192329 | 44 | 357 | 0.9 | 7.0 | 0.00 | 0.00 | 0.00 | 62 | 1015.1 |
| 20260502192129 | 45 | 1 | 2.6 | 7.0 | 0.00 | 0.00 | 0.00 | 62 | 1015.1 |
| 20260502191929 | 45 | 14 | 3.5 | 7.0 | 0.00 | 0.00 | 0.00 | 61 | 1015.1 |
| 20260502191728 | 46 | 210 | 2.6 | 7.0 | 0.00 | 0.00 | 0.00 | 60 | 1015.1 |
| 20260502191528 | 46 | 276 | 2.6 | 7.0 | 0.00 | 0.00 | 0.00 | 59 | 1015.0 |
| 20260502191328 | 46 | 20 | 1.7 | 7.0 | 0.00 | 0.00 | 0.00 | 58 | 1015.0 |
| 20260502191127 | 46 | 40 | 0.9 | 3.5 | 0.00 | 0.00 | 0.00 | 59 | 1015.0 |
| 20260502190927 | 46 | 348 | 0.9 | 3.5 | 0.00 | 0.00 | 0.00 | 58 | 1015.0 |
| 20260502190727 | 46 | 329 | 0.9 | 3.5 | 0.00 | 0.00 | 0.00 | 59 | 1015.0 |
| 20260502190526 | 46 | 346 | 0.9 | 4.3 | 0.00 | 0.00 | 0.00 | 59 | 1015.0 |
| 20260502190326 | 46 | 350 | 0.9 | 4.3 | 0.00 | 0.00 | 0.00 | 58 | 1015.0 |
| 20260502190126 | 46 | 15 | 0.9 | 4.3 | 0.00 | 0.00 | 0.00 | 59 | 1015.0 |
| 20260502185925 | 46 | 22 | 0.9 | 4.3 | 0.00 | 0.00 | 0.00 | 59 | 1015.0 |
| 20260502185725 | 46 | 17 | 1.7 | 4.3 | 0.00 | 0.00 | 0.00 | 58 | 1015.0 |
| 20260502185525 | 46 | 354 | 0.0 | 4.3 | 0.00 | 0.00 | 0.00 | 59 | 1015.0 |
| 20260502185325 | 46 | 88 | 0.9 | 4.3 | 0.00 | 0.00 | 0.00 | 59 | 1015.0 |
| 20260502185124 | 46 | 23 | 0.9 | 3.5 | 0.00 | 0.00 | 0.00 | 59 | 1015.1 |
| 20260502184924 | 46 | 5 | 0.9 | 5.2 | 0.00 | 0.00 | 0.00 | 60 | 1015.0 |
| 20260502184724 | 46 | 357 | 0.0 | 5.2 | 0.00 | 0.00 | 0.00 | 60 | 1015.0 |
| 20260502184523 | 46 | 348 | 0.9 | 7.8 | 0.00 | 0.00 | 0.00 | 60 | 1015.0 |
| 20260502184323 | 45 | 354 | 0.9 | 8.7 | 0.00 | 0.00 | 0.00 | 61 | 1015.0 |
| 20260502184123 | 45 | 86 | 1.7 | 8.7 | 0.00 | 0.00 | 0.00 | 61 | 1015.0 |
| 20260502183922 | 45 | 95 | 1.7 | 8.7 | 0.00 | 0.00 | 0.00 | 63 | 1014.9 |
| 20260502183722 | 45 | 72 | 1.7 | 8.7 | 0.00 | 0.00 | 0.00 | 63 | 1014.9 |
| 20260502183522 | 45 | 103 | 1.7 | 8.7 | 0.00 | 0.00 | 0.00 | 63 | 1014.9 |
| 20260502183322 | 45 | 241 | 1.7 | 5.2 | 0.00 | 0.00 | 0.00 | 62 | 1015.0 |
| 20260502183121 | 45 | 198 | 1.7 | 5.2 | 0.00 | 0.00 | 0.00 | 62 | 1015.0 |
| 20260502182921 | 45 | 183 | 1.7 | 5.2 | 0.00 | 0.00 | 0.00 | 62 | 1015.0 |
| 20260502182721 | 45 | 193 | 1.7 | 3.5 | 0.00 | 0.00 | 0.00 | 62 | 1015.0 |
| 20260502182520 | 45 | 15 | 0.9 | 3.5 | 0.00 | 0.00 | 0.00 | 62 | 1015.1 |
| 20260502182320 | 45 | 18 | 0.9 | 3.5 | 0.00 | 0.00 | 0.00 | 62 | 1015.1 |
| 20260502182120 | 45 | 82 | 0.9 | 4.3 | 0.00 | 0.00 | 0.00 | 63 | 1015.0 |
| 20260502181919 | 45 | 281 | 0.9 | 4.3 | 0.00 | 0.00 | 0.00 | 62 | 1015.1 |
| 20260502181719 | 45 | 13 | 0.9 | 4.3 | 0.00 | 0.00 | 0.00 | 63 | 1015.1 |
| 20260502181519 | 45 | 119 | 0.9 | 5.2 | 0.00 | 0.00 | 0.00 | 62 | 1015.1 |
| 20260502181319 | 45 | 133 | 0.9 | 5.2 | 0.00 | 0.00 | 0.00 | 62 | 1015.0 |
| 20260502181118 | 45 | 69 | 0.9 | 5.2 | 0.00 | 0.00 | 0.00 | 62 | 1015.1 |
| 20260502180918 | 45 | 256 | 0.9 | 5.2 | 0.00 | 0.00 | 0.00 | 63 | 1015.0 |
| 20260502180718 | 45 | 214 | 0.9 | 5.2 | 0.00 | 0.00 | 0.00 | 62 | 1015.0 |
| 20260502180517 | 45 | 78 | 0.9 | 5.2 | 0.00 | 0.00 | 0.00 | 62 | 1015.1 |
| 20260502180317 | 45 | 78 | 1.7 | 7.0 | 0.00 | 0.00 | 0.00 | 61 | 1015.0 |
| 20260502180117 | 45 | 95 | 1.7 | 7.0 | 0.00 | 0.00 | 0.00 | 62 | 1015.1 |
| 20260502170508 | 46 | 33 | 1.7 | 5.2 | 0.00 | 0.00 | 0.00 | 61 | 1014.9 |
| 20260502170308 | 47 | 3 | 0.9 | 5.2 | 0.00 | 0.00 | 0.00 | 61 | 1014.9 |
| 20260502170108 | 47 | 320 | 0.9 | 5.2 | 0.00 | 0.00 | 0.00 | 61 | 1014.8 |
| 20260502164317 | 46 | 24 | 1.7 | 6.1 | 0.00 | 0.00 | 0.00 | 63 | 1015.0 |
| 20260502164115 | 46 | 307 | 0.9 | 7.0 | 0.00 | 0.00 | 0.00 | 64 | 1015.0 |
| 20260502163915 | 46 | 326 | 0.9 | 7.0 | 0.00 | 0.00 | 0.00 | 63 | 1015.0 |
| 20260502163714 | 45 | 61 | 0.9 | 7.0 | 0.00 | 0.00 | 0.00 | 65 | 1015.0 |
| 20260502163514 | 45 | 72 | 1.7 | 7.0 | 0.00 | 0.00 | 0.00 | 65 | 1015.1 |
| 20260502163314 | 45 | 19 | 2.6 | 7.0 | 0.00 | 0.00 | 0.00 | 64 | 1015.0 |
| 20260502163113 | 45 | 347 | 1.7 | 7.0 | 0.00 | 0.00 | 0.00 | 65 | 1015.1 |
| 20260502162913 | 45 | 350 | 0.9 | 4.3 | 0.00 | 0.00 | 0.00 | 67 | 1015.1 |
| 20260502162713 | 44 | 20 | 0.9 | 4.3 | 0.00 | 0.00 | 0.00 | 67 | 1015.1 |
| 20260502162512 | 44 | 34 | 1.7 | 9.6 | 0.00 | 0.00 | 0.00 | 67 | 1015.0 |
| 20260502162312 | 44 | 97 | 1.7 | 10.4 | 0.00 | 0.00 | 0.00 | 67 | 1015.0 |
| 20260502162112 | 44 | 87 | 1.7 | 10.4 | 0.00 | 0.00 | 0.00 | 67 | 1015.1 |
| 20260502161912 | 44 | 81 | 1.7 | 10.4 | 0.00 | 0.00 | 0.00 | 68 | 1015.0 |
| 20260502161711 | 44 | 23 | 3.5 | 10.4 | 0.00 | 0.00 | 0.00 | 67 | 1015.0 |
| 20260502161511 | 44 | 28 | 3.5 | 10.4 | 0.00 | 0.00 | 0.00 | 67 | 1015.0 |
| 20260502161311 | 44 | 2 | 2.6 | 7.0 | 0.00 | 0.00 | 0.00 | 66 | 1015.1 |
| 20260502161110 | 44 | 350 | 0.9 | 5.2 | 0.00 | 0.00 | 0.00 | 68 | 1015.1 |
| 20260502160910 | 44 | 131 | 0.9 | 8.7 | 0.00 | 0.00 | 0.00 | 68 | 1015.1 |
| 20260502160710 | 44 | 112 | 0.9 | 8.7 | 0.00 | 0.00 | 0.00 | 67 | 1015.1 |
| 20260502160509 | 45 | 1 | 2.6 | 8.7 | 0.00 | 0.00 | 0.00 | 67 | 1015.1 |
| 20260502160309 | 45 | 36 | 4.3 | 8.7 | 0.00 | 0.00 | 0.00 | 65 | 1015.1 |
| 20260502160109 | 46 | 339 | 2.6 | 8.7 | 0.00 | 0.00 | 0.00 | 64 | 1015.2 |
| 20260502152305 | 44 | 334 | 1.7 | 6.1 | 0.00 | 0.00 | 0.00 | 67 | 1015.0 |
| 20260502152103 | 44 | 119 | 1.7 | 8.7 | 0.00 | 0.00 | 0.00 | 67 | 1015.2 |
| 20260502151902 | 44 | 59 | 2.6 | 9.6 | 0.00 | 0.00 | 0.00 | 67 | 1015.1 |
| 20260502151702 | 44 | 31 | 3.5 | 9.6 | 0.00 | 0.00 | 0.00 | 67 | 1015.1 |
| 20260502151502 | 44 | 25 | 3.5 | 9.6 | 0.00 | 0.00 | 0.00 | 66 | 1015.1 |
| 20260502150819 | 44 | 357 | 3.5 | 11.3 | 0.00 | 0.00 | 0.00 | 65 | 1015.1 |
| 20260502150619 | 45 | 4 | 3.5 | 11.3 | 0.00 | 0.00 | 0.00 | 64 | 1015.1 |
| 20260502150418 | 45 | 30 | 2.6 | 11.3 | 0.00 | 0.00 | 0.00 | 64 | 1015.0 |
| 20260502150218 | 46 | 92 | 3.5 | 11.3 | 0.00 | 0.00 | 0.00 | 63 | 1015.1 |
| 20260502140113 | 43 | 197 | 1.7 | 8.7 | 0.00 | 0.00 | 0.00 | 67 | 1015.3 |
| 20260502130705 | 42 | 234 | 2.6 | 7.8 | 0.00 | 0.00 | 0.00 | 68 | 1015.4 |
| 20260502130504 | 42 | 73 | 1.7 | 8.7 | 0.00 | 0.00 | 0.00 | 69 | 1015.4 |
| 20260502130304 | 42 | 107 | 1.7 | 9.6 | 0.00 | 0.00 | 0.00 | 69 | 1015.3 |
| 20260502130104 | 42 | 104 | 3.5 | 9.6 | 0.00 | 0.00 | 0.00 | 69 | 1015.3 |
| 20260502123700 | 40 | 105 | 1.7 | 7.8 | 0.00 | 0.00 | 0.00 | 72 | 1015.6 |
| 20260502123500 | 40 | 92 | 1.7 | 7.8 | 0.00 | 0.00 | 0.00 | 72 | 1015.5 |
| 20260502123300 | 40 | 98 | 1.7 | 7.8 | 0.00 | 0.00 | 0.00 | 73 | 1015.5 |
| 20260502123059 | 40 | 190 | 1.7 | 7.8 | 0.00 | 0.00 | 0.00 | 73 | 1015.6 |
| 20260502122859 | 40 | 237 | 1.7 | 7.8 | 0.00 | 0.00 | 0.00 | 73 | 1015.6 |
| 20260502122659 | 39 | 247 | 1.7 | 6.1 | 0.00 | 0.00 | 0.00 | 74 | 1015.6 |
| 20260502122458 | 39 | 54 | 1.7 | 6.1 | 0.00 | 0.00 | 0.00 | 74 | 1015.7 |
| 20260502122258 | 39 | 149 | 1.7 | 6.1 | 0.00 | 0.00 | 0.00 | 74 | 1015.6 |
| 20260502122058 | 38 | 205 | 1.7 | 6.1 | 0.00 | 0.00 | 0.00 | 74 | 1015.6 |
| 20260502121857 | 38 | 346 | 2.6 | 6.1 | 0.00 | 0.00 | 0.00 | 75 | 1015.6 |
| 20260502121657 | 38 | 144 | 2.6 | 6.1 | 0.00 | 0.00 | 0.00 | 75 | 1015.6 |
| 20260502121457 | 38 | 138 | 1.7 | 6.1 | 0.00 | 0.00 | 0.00 | 75 | 1015.5 |
| 20260502121257 | 37 | 240 | 1.7 | 6.1 | 0.00 | 0.00 | 0.00 | 76 | 1015.5 |
| 20260502121056 | 37 | 179 | 1.7 | 6.1 | 0.00 | 0.00 | 0.00 | 75 | 1015.5 |
| 20260502120856 | 37 | 76 | 0.9 | 4.3 | 0.00 | 0.00 | 0.00 | 76 | 1015.4 |
| 20260502120656 | 37 | 152 | 0.9 | 5.2 | 0.00 | 0.00 | 0.00 | 77 | 1015.4 |
| 20260502120455 | 37 | 223 | 0.9 | 7.0 | 0.00 | 0.00 | 0.00 | 77 | 1015.4 |
| 20260502120255 | 37 | 341 | 0.9 | 7.0 | 0.00 | 0.00 | 0.00 | 78 | 1015.4 |
| 20260502115854 | 37 | 79 | 2.6 | 7.0 | 0.00 | 0.00 | 0.00 | 78 | 1015.5 |
| 20260502115654 | 36 | 95 | 1.7 | 7.0 | 0.00 | 0.00 | 0.00 | 78 | 1015.5 |
| 20260502115454 | 36 | 85 | 0.9 | 6.1 | 0.00 | 0.00 | 0.00 | 79 | 1015.5 |
| 20260502115254 | 36 | 22 | 1.7 | 6.1 | 0.00 | 0.00 | 0.00 | 79 | 1015.4 |
| 20260502115053 | 36 | 219 | 0.9 | 6.1 | 0.00 | 0.00 | 0.00 | 80 | 1015.4 |
| 20260502114853 | 36 | 262 | 1.7 | 6.1 | 0.00 | 0.00 | 0.00 | 80 | 1015.3 |
| 20260502114653 | 36 | 162 | 2.6 | 6.1 | 0.00 | 0.00 | 0.00 | 80 | 1015.4 |
| 20260502114452 | 36 | 160 | 0.9 | 6.1 | 0.00 | 0.00 | 0.00 | 81 | 1015.4 |
| 20260502114252 | 36 | 110 | 0.0 | 4.3 | 0.00 | 0.00 | 0.00 | 81 | 1015.4 |
| 20260502114052 | 36 | 152 | 0.9 | 4.3 | 0.00 | 0.00 | 0.00 | 81 | 1015.4 |
| 20260502113851 | 35 | 232 | 1.7 | 4.3 | 0.00 | 0.00 | 0.00 | 82 | 1015.4 |
| 20260502113651 | 35 | 278 | 0.9 | 3.5 | 0.00 | 0.00 | 0.00 | 82 | 1015.4 |
| 20260502113451 | 35 | 96 | 0.9 | 3.5 | 0.00 | 0.00 | 0.00 | 82 | 1015.4 |
| 20260502113251 | 35 | 246 | 0.9 | 3.5 | 0.00 | 0.00 | 0.00 | 83 | 1015.4 |
| 20260502113050 | 35 | 289 | 0.9 | 3.5 | 0.00 | 0.00 | 0.00 | 83 | 1015.4 |
| 20260502112850 | 35 | 187 | 0.9 | 3.5 | 0.00 | 0.00 | 0.00 | 83 | 1015.3 |
| 20260502112650 | 34 | 156 | 0.9 | 3.5 | 0.00 | 0.00 | 0.00 | 83 | 1015.3 |
| 20260502112449 | 34 | 280 | 0.0 | 5.2 | 0.00 | 0.00 | 0.00 | 83 | 1015.3 |
| 20260502112249 | 34 | 255 | 0.9 | 5.2 | 0.00 | 0.00 | 0.00 | 83 | 1015.3 |
| 20260502112049 | 34 | 236 | 0.9 | 5.2 | 0.00 | 0.00 | 0.00 | 83 | 1015.2 |
| 20260502111848 | 34 | 224 | 0.9 | 5.2 | 0.00 | 0.00 | 0.00 | 83 | 1015.2 |
| 20260502111648 | 34 | 135 | 0.9 | 5.2 | 0.00 | 0.00 | 0.00 | 83 | 1015.2 |
| 20260502111448 | 34 | 333 | 0.9 | 2.6 | 0.00 | 0.00 | 0.00 | 83 | 1015.2 |
| 20260502111248 | 34 | 341 | 0.0 | 2.6 | 0.00 | 0.00 | 0.00 | 83 | 1015.2 |
| 20260502111047 | 34 | 98 | 0.0 | 2.6 | 0.00 | 0.00 | 0.00 | 83 | 1015.2 |
| 20260502110847 | 34 | 83 | 0.0 | 2.6 | 0.00 | 0.00 | 0.00 | 83 | 1015.3 |
| 20260502110647 | 34 | 217 | 0.9 | 2.6 | 0.00 | 0.00 | 0.00 | 83 | 1015.3 |
| 20260502110446 | 34 | 116 | 0.9 | 2.6 | 0.00 | 0.00 | 0.00 | 83 | 1015.3 |
| 20260502110246 | 34 | 94 | 0.9 | 2.6 | 0.00 | 0.00 | 0.00 | 83 | 1015.2 |
| 20260502110046 | 34 | 88 | 0.9 | 2.6 | 0.00 | 0.00 | 0.00 | 83 | 1015.2 |
| 20260502105845 | 34 | 41 | 0.0 | 2.6 | 0.00 | 0.00 | 0.00 | 83 | 1015.2 |
| 20260502105645 | 34 | 270 | 0.9 | 2.6 | 0.00 | 0.00 | 0.00 | 83 | 1015.3 |
| 20260502105445 | 34 | 256 | 0.9 | 2.6 | 0.00 | 0.00 | 0.00 | 82 | 1015.3 |
| 20260502105245 | 34 | 164 | 0.9 | 3.5 | 0.00 | 0.00 | 0.00 | 82 | 1015.2 |
| 20260502105044 | 34 | 242 | 0.9 | 3.5 | 0.00 | 0.00 | 0.00 | 82 | 1015.2 |
| 20260502104844 | 34 | 266 | 0.9 | 3.5 | 0.00 | 0.00 | 0.00 | 83 | 1015.2 |
| 20260502104644 | 34 | 227 | 0.9 | 3.5 | 0.00 | 0.00 | 0.00 | 83 | 1015.2 |
| 20260502104443 | 34 | 221 | 0.9 | 3.5 | 0.00 | 0.00 | 0.00 | 82 | 1015.2 |
| 20260502104243 | 34 | 239 | 0.9 | 5.2 | 0.00 | 0.00 | 0.00 | 82 | 1015.2 |
| 20260502104043 | 34 | 260 | 0.0 | 5.2 | 0.00 | 0.00 | 0.00 | 82 | 1015.2 |
| 20260502103842 | 34 | 259 | 0.0 | 5.2 | 0.00 | 0.00 | 0.00 | 82 | 1015.2 |
| 20260502103642 | 34 | 267 | 0.9 | 5.2 | 0.00 | 0.00 | 0.00 | 82 | 1015.1 |
| 20260502103442 | 34 | 64 | 1.7 | 6.1 | 0.00 | 0.00 | 0.00 | 83 | 1015.1 |
| 20260502103242 | 34 | 61 | 0.9 | 6.1 | 0.00 | 0.00 | 0.00 | 83 | 1015.0 |
| 20260502103041 | 34 | 133 | 0.9 | 6.1 | 0.00 | 0.00 | 0.00 | 83 | 1015.0 |
| 20260502102841 | 34 | 40 | 0.9 | 6.1 | 0.00 | 0.00 | 0.00 | 83 | 1015.1 |
| 20260502102641 | 34 | 8 | 0.9 | 6.1 | 0.00 | 0.00 | 0.00 | 83 | 1015.0 |
| 20260502102440 | 34 | 237 | 0.9 | 5.2 | 0.00 | 0.00 | 0.00 | 83 | 1015.0 |
| 20260502102240 | 34 | 265 | 0.9 | 5.2 | 0.00 | 0.00 | 0.00 | 83 | 1015.0 |
| 20260502102040 | 34 | 83 | 0.9 | 5.2 | 0.00 | 0.00 | 0.00 | 83 | 1015.0 |
| 20260502101839 | 34 | 118 | 1.7 | 5.2 | 0.00 | 0.00 | 0.00 | 83 | 1015.0 |
| 20260502101639 | 34 | 48 | 1.7 | 5.2 | 0.00 | 0.00 | 0.00 | 83 | 1014.9 |
| 20260502101439 | 34 | 5 | 0.9 | 4.3 | 0.00 | 0.00 | 0.00 | 83 | 1014.9 |
| 20260502101239 | 34 | 143 | 0.9 | 3.5 | 0.00 | 0.00 | 0.00 | 84 | 1015.0 |
| 20260502101038 | 34 | 284 | 0.9 | 3.5 | 0.00 | 0.00 | 0.00 | 84 | 1014.9 |
| 20260502100838 | 34 | 271 | 0.9 | 3.5 | 0.00 | 0.00 | 0.00 | 84 | 1015.0 |
| 20260502100638 | 33 | 224 | 0.0 | 2.6 | 0.00 | 0.00 | 0.00 | 84 | 1014.8 |
| 20260502100437 | 33 | 101 | 0.0 | 2.6 | 0.00 | 0.00 | 0.00 | 84 | 1014.8 |
| 20260502100237 | 33 | 43 | 0.0 | 5.2 | 0.00 | 0.00 | 0.00 | 84 | 1014.8 |
| 20260502091430 | 34 | 101 | 0.0 | 3.5 | 0.00 | 0.00 | 0.00 | 81 | 1014.8 |
| 20260502091229 | 34 | 220 | 0.9 | 5.2 | 0.00 | 0.00 | 0.00 | 81 | 1014.8 |
| 20260502091029 | 34 | 237 | 0.9 | 5.2 | 0.00 | 0.00 | 0.00 | 81 | 1014.7 |
| 20260502090829 | 34 | 191 | 0.0 | 5.2 | 0.00 | 0.00 | 0.00 | 81 | 1014.7 |
| 20260502090629 | 34 | 112 | 0.9 | 5.2 | 0.00 | 0.00 | 0.00 | 81 | 1014.7 |
| 20260502090428 | 34 | 98 | 0.9 | 5.2 | 0.00 | 0.00 | 0.00 | 81 | 1014.7 |
| 20260502090228 | 34 | 235 | 0.9 | 5.2 | 0.00 | 0.00 | 0.00 | 81 | 1014.6 |
| 20260502071412 | 35 | 59 | 1.7 | 6.1 | 0.00 | 0.00 | 0.00 | 80 | 1014.1 |
| 20260502071211 | 35 | 9 | 1.7 | 6.1 | 0.00 | 0.00 | 0.00 | 80 | 1014.2 |
| 20260502071011 | 35 | 54 | 0.9 | 6.1 | 0.00 | 0.00 | 0.00 | 80 | 1014.2 |
| 20260502070811 | 35 | 238 | 1.7 | 6.1 | 0.00 | 0.00 | 0.00 | 80 | 1014.3 |
| 20260502070611 | 35 | 96 | 1.7 | 6.1 | 0.00 | 0.00 | 0.00 | 80 | 1014.3 |
| 20260502070410 | 35 | 279 | 0.9 | 3.5 | 0.00 | 0.00 | 0.00 | 80 | 1014.4 |
| 20260502070210 | 35 | 34 | 0.9 | 4.3 | 0.00 | 0.00 | 0.00 | 81 | 1014.4 |
| 20260502070010 | 35 | 23 | 0.9 | 4.3 | 0.00 | 0.00 | 0.00 | 81 | 1014.3 |
| 20260502065809 | 35 | 38 | 0.9 | 4.3 | 0.00 | 0.00 | 0.00 | 81 | 1014.3 |
| 20260502065609 | 35 | 15 | 0.9 | 4.3 | 0.00 | 0.00 | 0.00 | 81 | 1014.3 |
| 20260502065409 | 35 | 91 | 0.9 | 3.5 | 0.00 | 0.00 | 0.00 | 81 | 1014.3 |
| 20260502065208 | 35 | 29 | 0.9 | 3.5 | 0.00 | 0.00 | 0.00 | 81 | 1014.3 |
| 20260502065008 | 35 | 69 | 0.9 | 2.6 | 0.00 | 0.00 | 0.00 | 81 | 1014.3 |
| 20260502064808 | 35 | 68 | 0.0 | 2.6 | 0.00 | 0.00 | 0.00 | 81 | 1014.3 |
| 20260502064607 | 35 | 46 | 0.0 | 2.6 | 0.00 | 0.00 | 0.00 | 81 | 1014.5 |
| 20260502064407 | 35 | 33 | 0.0 | 2.6 | 0.00 | 0.00 | 0.00 | 81 | 1014.5 |
| 20260502064207 | 35 | 22 | 0.9 | 2.6 | 0.00 | 0.00 | 0.00 | 81 | 1014.5 |
| 20260502064007 | 35 | 265 | 0.0 | 2.6 | 0.00 | 0.00 | 0.00 | 81 | 1014.5 |
| 20260502063806 | 35 | 257 | 0.0 | 2.6 | 0.00 | 0.00 | 0.00 | 81 | 1014.6 |
| 20260502063606 | 35 | 257 | 0.0 | 2.6 | 0.00 | 0.00 | 0.00 | 81 | 1014.7 |
| 20260502063406 | 35 | 268 | 0.9 | 2.6 | 0.00 | 0.00 | 0.00 | 81 | 1014.8 |
| 20260502063205 | 35 | 257 | 0.9 | 2.6 | 0.00 | 0.00 | 0.00 | 81 | 1014.8 |
| 20260502063005 | 35 | 250 | 0.9 | 3.5 | 0.00 | 0.00 | 0.00 | 81 | 1014.8 |
| 20260502062805 | 35 | 356 | 0.9 | 3.5 | 0.00 | 0.00 | 0.00 | 82 | 1014.8 |
| 20260502062604 | 35 | 182 | 0.9 | 3.5 | 0.00 | 0.00 | 0.00 | 82 | 1014.9 |
| 20260502062404 | 35 | 167 | 0.9 | 3.5 | 0.00 | 0.00 | 0.00 | 82 | 1014.9 |
| 20260502062204 | 35 | 225 | 0.0 | 1.7 | 0.00 | 0.00 | 0.00 | 82 | 1014.9 |
| 20260502062004 | 34 | 239 | 0.9 | 1.7 | 0.00 | 0.00 | 0.00 | 82 | 1015.0 |
| 20260502061803 | 34 | 241 | 0.9 | 3.5 | 0.00 | 0.00 | 0.00 | 82 | 1015.0 |
| 20260502061603 | 34 | 241 | 0.0 | 3.5 | 0.00 | 0.00 | 0.00 | 82 | 1015.0 |
| 20260502061403 | 34 | 241 | 0.0 | 3.5 | 0.00 | 0.00 | 0.00 | 82 | 1015.1 |
| 20260502061202 | 34 | 237 | 0.9 | 3.5 | 0.00 | 0.00 | 0.00 | 82 | 1015.0 |
| 20260502061002 | 34 | 244 | 0.9 | 4.3 | 0.00 | 0.00 | 0.00 | 82 | 1015.1 |
| 20260502060802 | 34 | 277 | 0.9 | 4.3 | 0.00 | 0.00 | 0.00 | 82 | 1015.1 |
| 20260502060601 | 34 | 195 | 0.9 | 4.3 | 0.00 | 0.00 | 0.00 | 82 | 1014.9 |
| 20260502060401 | 34 | 169 | 0.9 | 4.3 | 0.00 | 0.00 | 0.00 | 82 | 1015.0 |
| 20260502060201 | 34 | 149 | 0.9 | 4.3 | 0.00 | 0.00 | 0.00 | 82 | 1014.9 |
| 20260502060001 | 34 | 110 | 0.0 | 3.5 | 0.00 | 0.00 | 0.00 | 82 | 1014.9 |
| 20260502055800 | 34 | 108 | 0.0 | 2.6 | 0.00 | 0.00 | 0.00 | 82 | 1014.9 |
| 20260502055600 | 34 | 107 | 0.0 | 2.6 | 0.00 | 0.00 | 0.00 | 82 | 1014.9 |
| 20260502055400 | 34 | 229 | 0.9 | 2.6 | 0.00 | 0.00 | 0.00 | 82 | 1014.9 |
| 20260502055159 | 34 | 246 | 0.9 | 2.6 | 0.00 | 0.00 | 0.00 | 82 | 1014.9 |
| 20260502054959 | 34 | 227 | 0.0 | 2.6 | 0.00 | 0.00 | 0.00 | 82 | 1014.9 |
| 20260502054759 | 34 | 219 | 0.0 | 1.7 | 0.00 | 0.00 | 0.00 | 82 | 1014.9 |
| 20260502054558 | 34 | 219 | 0.0 | 1.7 | 0.00 | 0.00 | 0.00 | 82 | 1014.9 |
| 20260502054358 | 34 | 219 | 0.0 | 2.6 | 0.00 | 0.00 | 0.00 | 82 | 1014.9 |
| 20260502054158 | 34 | 219 | 0.0 | 2.6 | 0.00 | 0.00 | 0.00 | 82 | 1015.0 |
| 20260502053958 | 34 | 219 | 0.0 | 2.6 | 0.00 | 0.00 | 0.00 | 82 | 1015.0 |
| 20260502053757 | 34 | 219 | 0.0 | 2.6 | 0.00 | 0.00 | 0.00 | 82 | 1015.0 |
| 20260502053557 | 35 | 175 | 0.0 | 2.6 | 0.00 | 0.00 | 0.00 | 82 | 1015.0 |
| 20260502053357 | 35 | 94 | 0.9 | 2.6 | 0.00 | 0.00 | 0.00 | 82 | 1015.0 |
| 20260502053156 | 35 | 163 | 0.9 | 2.6 | 0.00 | 0.00 | 0.00 | 82 | 1015.0 |
| 20260502052956 | 35 | 138 | 0.0 | 2.6 | 0.00 | 0.00 | 0.00 | 82 | 1015.1 |
| 20260502052756 | 35 | 151 | 0.9 | 3.5 | 0.00 | 0.00 | 0.00 | 82 | 1015.0 |
| 20260502052555 | 35 | 140 | 0.9 | 3.5 | 0.00 | 0.00 | 0.00 | 82 | 1015.0 |
| 20260502052355 | 35 | 116 | 0.0 | 3.5 | 0.00 | 0.00 | 0.00 | 82 | 1015.0 |
| 20260502052155 | 35 | 210 | 0.9 | 3.5 | 0.00 | 0.00 | 0.00 | 82 | 1015.0 |
| 20260502051955 | 35 | 119 | 0.9 | 3.5 | 0.00 | 0.00 | 0.00 | 82 | 1014.9 |
| 20260502051754 | 35 | 114 | 0.9 | 2.6 | 0.00 | 0.00 | 0.00 | 82 | 1014.9 |
| 20260502051554 | 35 | 229 | 0.9 | 2.6 | 0.00 | 0.00 | 0.00 | 82 | 1015.0 |
| 20260502051354 | 35 | 219 | 0.9 | 3.5 | 0.00 | 0.00 | 0.00 | 82 | 1015.0 |
| 20260502051153 | 35 | 246 | 0.9 | 4.3 | 0.00 | 0.00 | 0.00 | 81 | 1015.0 |
| 20260502050953 | 35 | 173 | 0.9 | 4.3 | 0.00 | 0.00 | 0.00 | 81 | 1014.9 |
| 20260502050753 | 35 | 133 | 0.9 | 4.3 | 0.00 | 0.00 | 0.00 | 81 | 1014.9 |
| 20260502050552 | 35 | 141 | 0.9 | 4.3 | 0.00 | 0.00 | 0.00 | 81 | 1015.0 |
| 20260502050352 | 35 | 155 | 0.9 | 4.3 | 0.00 | 0.00 | 0.00 | 81 | 1014.8 |
| 20260502050152 | 35 | 153 | 0.9 | 4.3 | 0.00 | 0.00 | 0.00 | 81 | 1014.8 |
| 20260502045952 | 35 | 146 | 0.9 | 4.3 | 0.00 | 0.00 | 0.00 | 81 | 1014.8 |
| 20260502045751 | 35 | 134 | 0.0 | 3.5 | 0.00 | 0.00 | 0.00 | 81 | 1014.7 |
| 20260502045551 | 35 | 134 | 0.0 | 3.5 | 0.00 | 0.00 | 0.00 | 80 | 1014.7 |
| 20260502045351 | 35 | 134 | 0.0 | 3.5 | 0.00 | 0.00 | 0.00 | 80 | 1014.7 |
| 20260502045150 | 35 | 126 | 0.9 | 3.5 | 0.00 | 0.00 | 0.00 | 80 | 1014.7 |
| 20260502044950 | 35 | 105 | 0.9 | 2.6 | 0.00 | 0.00 | 0.00 | 80 | 1014.7 |
| 20260502044750 | 35 | 75 | 0.0 | 2.6 | 0.00 | 0.00 | 0.00 | 80 | 1014.7 |
| 20260502044549 | 35 | 75 | 0.0 | 2.6 | 0.00 | 0.00 | 0.00 | 80 | 1014.7 |
| 20260502044349 | 36 | 80 | 0.9 | 2.6 | 0.00 | 0.00 | 0.00 | 80 | 1014.7 |
| 20260502044149 | 36 | 139 | 0.9 | 2.6 | 0.00 | 0.00 | 0.00 | 80 | 1014.6 |
| 20260502043949 | 36 | 206 | 0.9 | 2.6 | 0.00 | 0.00 | 0.00 | 80 | 1014.6 |
| 20260502043748 | 36 | 253 | 0.9 | 2.6 | 0.00 | 0.00 | 0.00 | 79 | 1014.6 |
| 20260502043548 | 36 | 252 | 0.0 | 2.6 | 0.00 | 0.00 | 0.00 | 79 | 1014.6 |
| 20260502043348 | 36 | 224 | 0.0 | 2.6 | 0.00 | 0.00 | 0.00 | 79 | 1014.5 |
| 20260502043147 | 36 | 42 | 0.9 | 2.6 | 0.00 | 0.00 | 0.00 | 79 | 1014.6 |
| 20260502042947 | 36 | 81 | 0.9 | 2.6 | 0.00 | 0.00 | 0.00 | 78 | 1014.5 |
| 20260502042747 | 36 | 114 | 0.0 | 1.7 | 0.00 | 0.00 | 0.00 | 78 | 1014.6 |
| 20260502042546 | 36 | 112 | 0.0 | 1.7 | 0.00 | 0.00 | 0.00 | 78 | 1014.6 |
| 20260502042346 | 36 | 116 | 0.0 | 1.7 | 0.00 | 0.00 | 0.00 | 78 | 1014.5 |
| 20260502042146 | 36 | 105 | 0.0 | 2.6 | 0.00 | 0.00 | 0.00 | 78 | 1014.6 |
| 20260502041946 | 36 | 294 | 0.0 | 2.6 | 0.00 | 0.00 | 0.00 | 77 | 1014.5 |
| 20260502041745 | 36 | 251 | 0.0 | 5.2 | 0.00 | 0.00 | 0.00 | 77 | 1014.5 |
| 20260502041545 | 36 | 235 | 0.0 | 5.2 | 0.00 | 0.00 | 0.00 | 77 | 1014.5 |
| 20260502041345 | 36 | 96 | 0.0 | 5.2 | 0.00 | 0.00 | 0.00 | 77 | 1014.5 |
| 20260502041144 | 36 | 87 | 0.9 | 5.2 | 0.00 | 0.00 | 0.00 | 77 | 1014.5 |
| 20260502040944 | 36 | 66 | 0.9 | 5.2 | 0.00 | 0.00 | 0.00 | 77 | 1014.5 |
| 20260502040744 | 36 | 75 | 0.0 | 2.6 | 0.00 | 0.00 | 0.00 | 77 | 1014.5 |
| 20260502040638 | 36 | 45 | 0.0 | 2.6 | 0.00 | 0.00 | 0.00 | 77 | 1014.5 |
| 20260502040437 | 36 | 317 | 0.0 | 2.6 | 0.00 | 0.00 | 0.00 | 76 | 1014.5 |
| 20260502040237 | 36 | 329 | 0.0 | 3.5 | 0.00 | 0.00 | 0.00 | 76 | 1014.5 |
| 20260502040037 | 36 | 354 | 0.0 | 3.5 | 0.00 | 0.00 | 0.00 | 76 | 1014.4 |
| 20260502035836 | 36 | 342 | 0.9 | 3.5 | 0.00 | 0.00 | 0.00 | 76 | 1014.4 |
| 20260502035636 | 36 | 339 | 0.9 | 3.5 | 0.00 | 0.00 | 0.00 | 76 | 1014.4 |
| 20260502035436 | 36 | 74 | 0.9 | 3.5 | 0.00 | 0.00 | 0.00 | 76 | 1014.4 |
| 20260502035235 | 36 | 144 | 0.9 | 3.5 | 0.00 | 0.00 | 0.00 | 75 | 1014.4 |
| 20260502035035 | 36 | 270 | 0.9 | 3.5 | 0.00 | 0.00 | 0.00 | 75 | 1014.4 |
| 20260502034835 | 37 | 22 | 0.0 | 5.2 | 0.00 | 0.00 | 0.00 | 75 | 1014.4 |
| 20260502034635 | 37 | 42 | 0.9 | 6.1 | 0.00 | 0.00 | 0.00 | 75 | 1014.4 |
| 20260502034434 | 37 | 115 | 0.9 | 6.1 | 0.00 | 0.00 | 0.00 | 75 | 1014.4 |
| 20260502034234 | 37 | 121 | 0.9 | 6.1 | 0.00 | 0.00 | 0.00 | 75 | 1014.4 |
| 20260502034034 | 37 | 49 | 0.9 | 6.1 | 0.00 | 0.00 | 0.00 | 74 | 1014.4 |
| 20260502033833 | 37 | 23 | 0.9 | 4.3 | 0.00 | 0.00 | 0.00 | 74 | 1014.4 |
| 20260502033633 | 37 | 221 | 0.9 | 2.6 | 0.00 | 0.00 | 0.00 | 74 | 1014.4 |
| 20260502033433 | 37 | 247 | 0.0 | 2.6 | 0.00 | 0.00 | 0.00 | 74 | 1014.4 |
| 20260502033232 | 37 | 52 | 0.0 | 2.6 | 0.00 | 0.00 | 0.00 | 74 | 1014.5 |
| 20260502033032 | 37 | 54 | 0.0 | 2.6 | 0.00 | 0.00 | 0.00 | 73 | 1014.4 |
| 20260502032832 | 37 | 54 | 0.0 | 2.6 | 0.00 | 0.00 | 0.00 | 73 | 1014.4 |
| 20260502032632 | 37 | 31 | 0.9 | 2.6 | 0.00 | 0.00 | 0.00 | 73 | 1014.4 |
| 20260502032431 | 37 | 48 | 0.9 | 2.6 | 0.00 | 0.00 | 0.00 | 73 | 1014.3 |
| 20260502032231 | 37 | 53 | 0.0 | 2.6 | 0.00 | 0.00 | 0.00 | 73 | 1014.2 |
| 20260502032031 | 37 | 36 | 0.9 | 2.6 | 0.00 | 0.00 | 0.00 | 73 | 1014.1 |
| 20260502031830 | 37 | 81 | 0.9 | 2.6 | 0.00 | 0.00 | 0.00 | 72 | 1014.1 |
| 20260502031630 | 37 | 111 | 0.9 | 2.6 | 0.00 | 0.00 | 0.00 | 72 | 1014.0 |
| 20260502031430 | 37 | 210 | 0.0 | 2.6 | 0.00 | 0.00 | 0.00 | 72 | 1014.1 |
| 20260502031229 | 38 | 14 | 0.0 | 3.5 | 0.00 | 0.00 | 0.00 | 72 | 1014.1 |
| 20260502031029 | 38 | 59 | 0.9 | 3.5 | 0.00 | 0.00 | 0.00 | 72 | 1014.2 |
| 20260502030829 | 38 | 51 | 0.9 | 3.5 | 0.00 | 0.00 | 0.00 | 72 | 1014.3 |
| 20260502030629 | 38 | 47 | 0.9 | 3.5 | 0.00 | 0.00 | 0.00 | 72 | 1014.3 |
| 20260502030428 | 38 | 330 | 0.9 | 4.3 | 0.00 | 0.00 | 0.00 | 71 | 1014.3 |
| 20260502030228 | 38 | 269 | 0.0 | 4.3 | 0.00 | 0.00 | 0.00 | 71 | 1014.2 |
| 20260502030028 | 38 | 278 | 0.9 | 4.3 | 0.00 | 0.00 | 0.00 | 71 | 1014.2 |
| 20260502025827 | 38 | 61 | 0.9 | 4.3 | 0.00 | 0.00 | 0.00 | 71 | 1014.3 |
| 20260502025627 | 38 | 38 | 0.9 | 4.3 | 0.00 | 0.00 | 0.00 | 70 | 1014.2 |
| 20260502025427 | 38 | 65 | 0.9 | 4.3 | 0.00 | 0.00 | 0.00 | 70 | 1014.3 |
| 20260502025226 | 38 | 71 | 0.9 | 4.3 | 0.00 | 0.00 | 0.00 | 70 | 1014.3 |
| 20260502025026 | 38 | 42 | 0.9 | 4.3 | 0.00 | 0.00 | 0.00 | 70 | 1014.3 |
| 20260502024826 | 38 | 27 | 1.7 | 4.3 | 0.00 | 0.00 | 0.00 | 70 | 1014.3 |
| 20260502024626 | 38 | 37 | 1.7 | 4.3 | 0.00 | 0.00 | 0.00 | 70 | 1014.3 |
| 20260502024425 | 38 | 9 | 1.7 | 3.5 | 0.00 | 0.00 | 0.00 | 69 | 1014.2 |
| 20260502024225 | 38 | 79 | 0.9 | 3.5 | 0.00 | 0.00 | 0.00 | 69 | 1014.3 |
| 20260502024025 | 38 | 13 | 0.9 | 3.5 | 0.00 | 0.00 | 0.00 | 69 | 1014.3 |
| 20260502023824 | 38 | 341 | 0.9 | 3.5 | 0.00 | 0.00 | 0.00 | 68 | 1014.3 |
| 20260502023624 | 39 | 279 | 0.0 | 3.5 | 0.00 | 0.00 | 0.00 | 68 | 1014.3 |
| 20260502023424 | 39 | 293 | 0.9 | 3.5 | 0.00 | 0.00 | 0.00 | 68 | 1014.3 |
| 20260502023223 | 39 | 320 | 0.9 | 4.3 | 0.00 | 0.00 | 0.00 | 68 | 1014.3 |
| 20260502023023 | 39 | 110 | 0.9 | 4.3 | 0.00 | 0.00 | 0.00 | 67 | 1014.3 |
| 20260502022823 | 39 | 69 | 0.9 | 4.3 | 0.00 | 0.00 | 0.00 | 67 | 1014.3 |
| 20260502022623 | 39 | 49 | 0.9 | 4.3 | 0.00 | 0.00 | 0.00 | 67 | 1014.3 |
| 20260502022422 | 39 | 360 | 0.9 | 4.3 | 0.00 | 0.00 | 0.00 | 67 | 1014.3 |
| 20260502022222 | 39 | 26 | 0.9 | 3.5 | 0.00 | 0.00 | 0.00 | 67 | 1014.3 |
| 20260502022022 | 39 | 327 | 0.9 | 3.5 | 0.00 | 0.00 | 0.00 | 67 | 1014.3 |
| 20260502021821 | 39 | 332 | 0.9 | 5.2 | 0.00 | 0.00 | 0.00 | 66 | 1014.3 |
| 20260502021621 | 39 | 29 | 0.9 | 5.2 | 0.00 | 0.00 | 0.00 | 66 | 1014.3 |
| 20260502021421 | 40 | 44 | 0.9 | 5.2 | 0.00 | 0.00 | 0.00 | 65 | 1014.3 |
| 20260502021220 | 40 | 83 | 0.9 | 5.2 | 0.00 | 0.00 | 0.00 | 65 | 1014.3 |
| 20260502021020 | 40 | 52 | 1.7 | 5.2 | 0.00 | 0.00 | 0.00 | 65 | 1014.3 |
| 20260502020820 | 40 | 60 | 0.9 | 5.2 | 0.00 | 0.00 | 0.00 | 64 | 1014.3 |
| 20260502020619 | 40 | 49 | 0.9 | 5.2 | 0.00 | 0.00 | 0.00 | 64 | 1014.2 |
| 20260502020419 | 40 | 40 | 0.9 | 5.2 | 0.00 | 0.00 | 0.00 | 64 | 1014.2 |
| 20260502020219 | 40 | 358 | 0.9 | 5.2 | 0.00 | 0.00 | 0.00 | 64 | 1014.2 |
| 20260502020019 | 40 | 80 | 1.7 | 5.2 | 0.00 | 0.00 | 0.00 | 63 | 1014.2 |
| 20260502015818 | 40 | 45 | 1.7 | 5.2 | 0.00 | 0.00 | 0.00 | 63 | 1014.2 |
| 20260502015618 | 40 | 139 | 0.9 | 5.2 | 0.00 | 0.00 | 0.00 | 62 | 1014.1 |
| 20260502015418 | 40 | 224 | 0.9 | 5.2 | 0.00 | 0.00 | 0.00 | 62 | 1014.1 |
| 20260502015217 | 40 | 58 | 0.9 | 5.2 | 0.00 | 0.00 | 0.00 | 62 | 1014.1 |
| 20260502015017 | 40 | 50 | 0.9 | 3.5 | 0.00 | 0.00 | 0.00 | 62 | 1014.0 |
| 20260502014817 | 40 | 64 | 0.9 | 3.5 | 0.00 | 0.00 | 0.00 | 61 | 1013.9 |
| 20260502014616 | 41 | 62 | 0.9 | 3.5 | 0.00 | 0.00 | 0.00 | 61 | 1013.9 |
| 20260502014416 | 41 | 43 | 0.9 | 3.5 | 0.00 | 0.00 | 0.00 | 61 | 1013.8 |
| 20260502014216 | 41 | 36 | 0.9 | 3.5 | 0.00 | 0.00 | 0.00 | 61 | 1013.7 |
| 20260502014016 | 41 | 31 | 0.0 | 4.3 | 0.00 | 0.00 | 0.00 | 61 | 1013.7 |
| 20260502013815 | 41 | 42 | 0.9 | 4.3 | 0.00 | 0.00 | 0.00 | 61 | 1013.6 |
| 20260502013615 | 41 | 103 | 0.9 | 4.3 | 0.00 | 0.00 | 0.00 | 60 | 1013.6 |
| 20260502013415 | 41 | 49 | 0.9 | 7.0 | 0.00 | 0.00 | 0.00 | 60 | 1013.6 |
| 20260502013214 | 41 | 1 | 0.0 | 7.0 | 0.00 | 0.00 | 0.00 | 60 | 1013.6 |
| 20260502013014 | 41 | 72 | 0.9 | 7.0 | 0.00 | 0.00 | 0.00 | 60 | 1013.6 |
| 20260502012814 | 42 | 98 | 2.6 | 7.0 | 0.00 | 0.00 | 0.00 | 60 | 1013.5 |
| 20260502012613 | 42 | 61 | 2.6 | 7.0 | 0.00 | 0.00 | 0.00 | 59 | 1013.5 |
| 20260502012413 | 42 | 18 | 0.9 | 6.1 | 0.00 | 0.00 | 0.00 | 60 | 1013.5 |
| 20260502012213 | 42 | 38 | 1.7 | 6.1 | 0.00 | 0.00 | 0.00 | 59 | 1013.5 |
| 20260502012013 | 42 | 82 | 1.7 | 6.1 | 0.00 | 0.00 | 0.00 | 60 | 1013.4 |
| 20260502011812 | 42 | 86 | 1.7 | 6.1 | 0.00 | 0.00 | 0.00 | 60 | 1013.4 |
| 20260502011612 | 42 | 69 | 1.7 | 6.1 | 0.00 | 0.00 | 0.00 | 60 | 1013.5 |
| 20260502011412 | 42 | 27 | 1.7 | 6.1 | 0.00 | 0.00 | 0.00 | 60 | 1013.5 |
| 20260502011211 | 42 | 100 | 1.7 | 6.1 | 0.00 | 0.00 | 0.00 | 60 | 1013.4 |
| 20260502011011 | 42 | 80 | 1.7 | 5.2 | 0.00 | 0.00 | 0.00 | 60 | 1013.4 |
| 20260502010811 | 42 | 93 | 1.7 | 5.2 | 0.00 | 0.00 | 0.00 | 60 | 1013.4 |
| 20260502010611 | 42 | 105 | 1.7 | 6.1 | 0.00 | 0.00 | 0.00 | 60 | 1013.3 |
| 20260502010410 | 43 | 128 | 1.7 | 6.1 | 0.00 | 0.00 | 0.00 | 60 | 1013.3 |
| 20260502010210 | 43 | 65 | 1.7 | 6.1 | 0.00 | 0.00 | 0.00 | 60 | 1013.3 |
| 20260502010010 | 43 | 58 | 2.6 | 7.0 | 0.00 | 0.00 | 0.00 | 60 | 1013.2 |
| 20260502005809 | 43 | 7 | 2.6 | 7.0 | 0.00 | 0.00 | 0.00 | 60 | 1013.2 |
| 20260502005609 | 43 | 354 | 2.6 | 7.0 | 0.00 | 0.00 | 0.00 | 60 | 1013.2 |
| 20260502005409 | 43 | 350 | 2.6 | 7.8 | 0.00 | 0.00 | 0.00 | 60 | 1013.1 |
| 20260502005208 | 43 | 2 | 1.7 | 7.8 | 0.00 | 0.00 | 0.00 | 60 | 1013.1 |
| 20260502005008 | 44 | 53 | 2.6 | 7.8 | 0.00 | 0.00 | 0.00 | 60 | 1013.1 |
| 20260502004808 | 44 | 62 | 2.6 | 7.8 | 0.00 | 0.00 | 0.00 | 59 | 1013.0 |
| 20260502004607 | 44 | 47 | 2.6 | 7.8 | 0.00 | 0.00 | 0.00 | 59 | 1013.0 |
| 20260502004407 | 44 | 59 | 1.7 | 8.7 | 0.00 | 0.00 | 0.00 | 59 | 1012.9 |
| 20260502004207 | 44 | 56 | 0.9 | 9.6 | 0.00 | 0.00 | 0.00 | 58 | 1012.9 |
| 20260502004007 | 44 | 27 | 2.6 | 9.6 | 0.00 | 0.00 | 0.00 | 58 | 1012.8 |
| 20260502003806 | 44 | 31 | 2.6 | 9.6 | 0.00 | 0.00 | 0.00 | 58 | 1012.7 |
| 20260502003606 | 44 | 27 | 2.6 | 9.6 | 0.00 | 0.00 | 0.00 | 57 | 1012.7 |
| 20260502003406 | 44 | 67 | 3.5 | 9.6 | 0.00 | 0.00 | 0.00 | 57 | 1012.6 |
| 20260502003205 | 45 | 20 | 2.6 | 8.7 | 0.00 | 0.00 | 0.00 | 57 | 1012.6 |
| 20260502003005 | 45 | 68 | 3.5 | 8.7 | 0.00 | 0.00 | 0.00 | 56 | 1012.6 |
| 20260502002805 | 45 | 67 | 3.5 | 8.7 | 0.00 | 0.00 | 0.00 | 57 | 1012.6 |
| 20260502002604 | 45 | 139 | 0.9 | 7.8 | 0.00 | 0.00 | 0.00 | 57 | 1012.5 |
| 20260502002404 | 45 | 88 | 1.7 | 6.1 | 0.00 | 0.00 | 0.00 | 57 | 1012.5 |
| 20260502002204 | 45 | 66 | 1.7 | 6.1 | 0.00 | 0.00 | 0.00 | 57 | 1012.5 |
| 20260502002004 | 45 | 103 | 2.6 | 6.1 | 0.00 | 0.00 | 0.00 | 57 | 1012.5 |
| 20260502001803 | 45 | 343 | 1.7 | 5.2 | 0.00 | 0.00 | 0.00 | 57 | 1012.4 |
| 20260502001603 | 45 | 296 | 0.9 | 5.2 | 0.00 | 0.00 | 0.00 | 57 | 1012.4 |
| 20260502001403 | 45 | 326 | 1.7 | 7.8 | 0.00 | 0.00 | 0.00 | 57 | 1012.3 |
| 20260502001202 | 46 | 340 | 1.7 | 8.7 | 0.00 | 0.00 | 0.00 | 56 | 1012.3 |
| 20260502001002 | 46 | 35 | 2.6 | 9.6 | 0.00 | 0.00 | 0.00 | 56 | 1012.3 |
| 20260502000802 | 46 | 177 | 2.6 | 9.6 | 0.00 | 0.00 | 0.00 | 56 | 1012.3 |
| 20260502000601 | 46 | 31 | 2.6 | 9.6 | 0.00 | 0.00 | 0.00 | 56 | 1012.3 |
| 20260502000402 | 46 | 48 | 3.5 | 9.6 | 0.00 | 0.00 | 0.00 | 56 | 1012.3 |
| 20260502000203 | 46 | 62 | 3.5 | 9.6 | 0.00 | 0.00 | 0.00 | 56 | 1012.3 |
| 20260502000001 | 46 | 77 | 3.5 | 8.7 | 0.00 | 0.00 | 0.00 | 56 | 1012.2 |
| 20260501235800 | 46 | 61 | 1.7 | 8.7 | 0.00 | 0.00 | 0.00 | 56 | 1012.2 |
| 20260501235600 | 46 | 63 | 2.6 | 8.7 | 0.00 | 0.00 | 0.00 | 56 | 1012.2 |
| 20260501235400 | 46 | 70 | 2.6 | 8.7 | 0.00 | 0.00 | 0.00 | 56 | 1012.2 |
| 20260501235159 | 46 | 17 | 1.7 | 9.6 | 0.00 | 0.00 | 0.00 | 56 | 1012.2 |
| 20260501234959 | 47 | 358 | 2.6 | 9.6 | 0.00 | 0.00 | 0.00 | 56 | 1012.2 |
| 20260501234759 | 47 | 335 | 2.6 | 9.6 | 0.00 | 0.00 | 0.00 | 56 | 1012.1 |
| 20260501234558 | 47 | 4 | 2.6 | 9.6 | 0.00 | 0.00 | 0.00 | 56 | 1012.0 |
| 20260501234358 | 47 | 46 | 1.7 | 9.6 | 0.00 | 0.00 | 0.00 | 56 | 1012.1 |
| 20260501234158 | 47 | 81 | 1.7 | 9.6 | 0.00 | 0.00 | 0.00 | 55 | 1012.1 |
| 20260501233958 | 47 | 35 | 2.6 | 9.6 | 0.00 | 0.00 | 0.00 | 56 | 1012.1 |
| 20260501233757 | 47 | 46 | 1.7 | 9.6 | 0.00 | 0.00 | 0.00 | 56 | 1012.0 |
| 20260501233557 | 47 | 84 | 1.7 | 9.6 | 0.00 | 0.00 | 0.00 | 56 | 1012.0 |
| 20260501233357 | 47 | 18 | 1.7 | 9.6 | 0.00 | 0.00 | 0.00 | 56 | 1012.0 |
| 20260501233156 | 47 | 354 | 2.6 | 7.0 | 0.00 | 0.00 | 0.00 | 56 | 1012.0 |
| 20260501232956 | 47 | 311 | 1.7 | 5.2 | 0.00 | 0.00 | 0.00 | 57 | 1011.9 |
| 20260501232756 | 47 | 243 | 0.9 | 5.2 | 0.00 | 0.00 | 0.00 | 57 | 1011.9 |
| 20260501232555 | 47 | 240 | 1.7 | 4.3 | 0.00 | 0.00 | 0.00 | 57 | 1011.9 |
| 20260501232355 | 47 | 304 | 0.9 | 5.2 | 0.00 | 0.00 | 0.00 | 57 | 1011.8 |
| 20260501232155 | 47 | 261 | 0.9 | 5.2 | 0.00 | 0.00 | 0.00 | 58 | 1011.8 |
| 20260501231955 | 47 | 269 | 0.9 | 5.2 | 0.00 | 0.00 | 0.00 | 58 | 1011.8 |
| 20260501231754 | 47 | 304 | 0.9 | 5.2 | 0.00 | 0.00 | 0.00 | 58 | 1011.8 |
| 20260501231554 | 47 | 225 | 1.7 | 5.2 | 0.00 | 0.00 | 0.00 | 58 | 1011.8 |
| 20260501231354 | 47 | 312 | 1.7 | 5.2 | 0.00 | 0.00 | 0.00 | 58 | 1011.8 |
| 20260501231153 | 47 | 345 | 2.6 | 8.7 | 0.00 | 0.00 | 0.00 | 58 | 1011.8 |
| 20260501230953 | 47 | 13 | 1.7 | 8.7 | 0.00 | 0.00 | 0.00 | 59 | 1011.8 |
| 20260501230753 | 47 | 31 | 0.9 | 8.7 | 0.00 | 0.00 | 0.00 | 59 | 1011.8 |
| 20260501230552 | 47 | 23 | 1.7 | 8.7 | 0.00 | 0.00 | 0.00 | 59 | 1011.8 |
| 20260501230352 | 47 | 21 | 3.5 | 8.7 | 0.00 | 0.00 | 0.00 | 58 | 1011.7 |
| 20260501230152 | 47 | 86 | 0.9 | 5.2 | 0.00 | 0.00 | 0.00 | 60 | 1011.7 |
| 20260501225952 | 47 | 344 | 0.9 | 5.2 | 0.00 | 0.00 | 0.00 | 60 | 1011.8 |
| 20260501225751 | 47 | 4 | 1.7 | 5.2 | 0.00 | 0.00 | 0.00 | 60 | 1011.7 |
| 20260501225551 | 46 | 24 | 0.9 | 3.5 | 0.00 | 0.00 | 0.00 | 63 | 1011.7 |
| 20260501225351 | 46 | 208 | 0.0 | 3.5 | 0.00 | 0.00 | 0.00 | 65 | 1011.7 |
| 20260501225150 | 46 | 212 | 0.0 | 5.2 | 0.00 | 0.00 | 0.00 | 70 | 1011.7 |
| 20260501224950 | 46 | 219 | 0.9 | 5.2 | 0.00 | 0.00 | 0.00 | 74 | 1011.7 |
| 20260501224750 | 46 | 252 | 0.9 | 5.2 | 0.00 | 0.00 | 0.00 | 75 | 1011.7 |
| 20260501224549 | 46 | 235 | 0.9 | 5.2 | 0.00 | 0.00 | 0.00 | 74 | 1011.7 |
| 20260501224349 | 46 | 206 | 1.7 | 4.3 | 0.00 | 0.00 | 0.00 | 74 | 1011.8 |
| 20260501224149 | 46 | 195 | 1.7 | 4.3 | 0.00 | 0.00 | 0.00 | 74 | 1011.8 |
| 20260501223949 | 46 | 212 | 0.9 | 4.3 | 0.00 | 0.00 | 0.00 | 74 | 1011.8 |
| 20260501223748 | 46 | 234 | 1.7 | 4.3 | 0.00 | 0.00 | 0.00 | 74 | 1011.8 |
| 20260501223548 | 46 | 228 | 2.6 | 4.3 | 0.00 | 0.00 | 0.00 | 74 | 1011.7 |
| 20260501223348 | 46 | 228 | 1.7 | 5.2 | 0.00 | 0.00 | 0.00 | 74 | 1011.7 |
| 20260501223147 | 46 | 230 | 0.9 | 5.2 | 0.00 | 0.00 | 0.00 | 74 | 1011.7 |
| 20260501222947 | 46 | 226 | 0.9 | 5.2 | 0.00 | 0.00 | 0.00 | 75 | 1011.7 |
| 20260501222747 | 46 | 227 | 1.7 | 5.2 | 0.00 | 0.00 | 0.00 | 75 | 1011.7 |
| 20260501222546 | 46 | 206 | 2.6 | 5.2 | 0.00 | 0.00 | 0.00 | 74 | 1011.7 |
| 20260501222346 | 46 | 209 | 1.7 | 5.2 | 0.00 | 0.00 | 0.00 | 74 | 1011.7 |
| 20260501222146 | 47 | 204 | 0.9 | 4.3 | 0.00 | 0.00 | 0.00 | 74 | 1011.7 |
| 20260501221946 | 47 | 200 | 0.9 | 4.3 | 0.00 | 0.00 | 0.00 | 74 | 1011.7 |
| 20260501221745 | 47 | 246 | 0.9 | 7.8 | 0.00 | 0.00 | 0.00 | 74 | 1011.7 |
| 20260501221545 | 47 | 254 | 0.9 | 7.8 | 0.00 | 0.00 | 0.00 | 74 | 1011.7 |
| 20260501221345 | 47 | 176 | 0.9 | 7.8 | 0.00 | 0.00 | 0.00 | 74 | 1011.7 |
| 20260501221144 | 47 | 179 | 0.9 | 7.8 | 0.00 | 0.00 | 0.00 | 74 | 1011.6 |
| 20260501220944 | 47 | 228 | 1.7 | 7.8 | 0.00 | 0.00 | 0.00 | 74 | 1011.5 |
| 20260501220744 | 47 | 235 | 2.6 | 7.8 | 0.00 | 0.00 | 0.00 | 74 | 1011.6 |
| 20260501220543 | 47 | 196 | 1.7 | 7.8 | 0.00 | 0.00 | 0.00 | 74 | 1011.5 |
| 20260501220344 | 47 | 222 | 2.6 | 8.7 | 0.00 | 0.00 | 0.00 | 74 | 1011.5 |
| 20260501220143 | 47 | 238 | 1.7 | 8.7 | 0.00 | 0.00 | 0.00 | 74 | 1011.5 |
| 20260501215942 | 47 | 238 | 1.7 | 10.4 | 0.00 | 0.00 | 0.00 | 74 | 1011.5 |
| 20260501215742 | 47 | 216 | 4.3 | 10.4 | 0.00 | 0.00 | 0.00 | 74 | 1011.4 |
| 20260501215542 | 47 | 216 | 3.5 | 10.4 | 0.00 | 0.00 | 0.00 | 74 | 1011.3 |
| 20260501215342 | 47 | 225 | 4.3 | 10.4 | 0.00 | 0.00 | 0.00 | 73 | 1011.3 |
| 20260501215141 | 47 | 217 | 5.2 | 10.4 | 0.00 | 0.00 | 0.00 | 73 | 1011.3 |
| 20260501214941 | 47 | 211 | 5.2 | 10.4 | 0.00 | 0.00 | 0.00 | 73 | 1011.2 |
| 20260501214741 | 48 | 212 | 5.2 | 11.3 | 0.00 | 0.00 | 0.00 | 72 | 1011.2 |
| 20260501214540 | 48 | 216 | 5.2 | 11.3 | 0.00 | 0.00 | 0.00 | 72 | 1011.3 |
| 20260501214340 | 48 | 212 | 4.3 | 11.3 | 0.00 | 0.00 | 0.00 | 72 | 1011.2 |
| 20260501214140 | 48 | 206 | 4.3 | 11.3 | 0.00 | 0.00 | 0.00 | 72 | 1011.2 |
| 20260501213940 | 48 | 215 | 3.5 | 11.3 | 0.00 | 0.00 | 0.00 | 72 | 1011.2 |
| 20260501213739 | 48 | 224 | 1.7 | 7.0 | 0.00 | 0.00 | 0.00 | 72 | 1011.2 |
| 20260501213539 | 48 | 222 | 1.7 | 7.8 | 0.00 | 0.00 | 0.00 | 72 | 1011.2 |
| 20260501213339 | 48 | 196 | 2.6 | 7.8 | 0.00 | 0.00 | 0.00 | 72 | 1011.3 |
| 20260501213138 | 48 | 207 | 2.6 | 7.8 | 0.00 | 0.00 | 0.00 | 72 | 1011.2 |
| 20260501212938 | 48 | 210 | 2.6 | 7.8 | 0.00 | 0.00 | 0.00 | 72 | 1011.3 |
| 20260501212738 | 48 | 220 | 2.6 | 7.8 | 0.00 | 0.00 | 0.00 | 72 | 1011.2 |
| 20260501212537 | 48 | 228 | 0.0 | 5.2 | 0.00 | 0.00 | 0.00 | 72 | 1011.3 |
| 20260501212337 | 48 | 202 | 0.9 | 5.2 | 0.00 | 0.00 | 0.00 | 72 | 1011.2 |
| 20260501212137 | 48 | 342 | 0.9 | 6.1 | 0.00 | 0.00 | 0.00 | 72 | 1011.2 |
| 20260501211936 | 48 | 264 | 0.9 | 7.8 | 0.00 | 0.00 | 0.00 | 72 | 1011.2 |
| 20260501211736 | 48 | 197 | 0.9 | 7.8 | 0.00 | 0.00 | 0.00 | 72 | 1011.2 |
| 20260501211536 | 48 | 178 | 1.7 | 8.7 | 0.00 | 0.00 | 0.00 | 72 | 1011.1 |
| 20260501211336 | 48 | 207 | 2.6 | 8.7 | 0.00 | 0.00 | 0.00 | 72 | 1011.1 |
| 20260501211135 | 48 | 216 | 3.5 | 8.7 | 0.00 | 0.00 | 0.00 | 71 | 1011.1 |
| 20260501210935 | 48 | 194 | 4.3 | 8.7 | 0.00 | 0.00 | 0.00 | 71 | 1011.1 |
| 20260501210735 | 49 | 200 | 4.3 | 8.7 | 0.00 | 0.00 | 0.00 | 71 | 1011.1 |
| 20260501210534 | 49 | 228 | 2.6 | 7.0 | 0.00 | 0.00 | 0.00 | 71 | 1011.1 |
| 20260501210334 | 49 | 223 | 2.6 | 11.3 | 0.00 | 0.00 | 0.00 | 71 | 1011.0 |
| 20260501210134 | 49 | 221 | 0.9 | 12.2 | 0.00 | 0.00 | 0.00 | 71 | 1011.0 |
| 20260501205933 | 49 | 239 | 0.9 | 12.2 | 0.00 | 0.00 | 0.00 | 70 | 1011.0 |
| 20260501205733 | 49 | 214 | 1.7 | 12.2 | 0.00 | 0.00 | 0.00 | 70 | 1011.0 |
| 20260501205533 | 49 | 226 | 3.5 | 12.2 | 0.00 | 0.00 | 0.00 | 70 | 1011.0 |
| 20260501205333 | 49 | 203 | 2.6 | 12.2 | 0.00 | 0.00 | 0.00 | 69 | 1010.9 |
| 20260501205132 | 50 | 216 | 0.9 | 6.1 | 0.00 | 0.00 | 0.00 | 68 | 1011.0 |
| 20260501204932 | 50 | 235 | 0.9 | 6.1 | 0.00 | 0.00 | 0.00 | 67 | 1010.9 |
| 20260501204732 | 50 | 226 | 1.7 | 6.1 | 0.00 | 0.00 | 0.00 | 66 | 1011.0 |
| 20260501204531 | 50 | 218 | 1.7 | 6.1 | 0.00 | 0.00 | 0.00 | 63 | 1011.0 |
| 20260501204331 | 50 | 223 | 2.6 | 6.1 | 0.00 | 0.00 | 0.00 | 53 | 1011.0 |
| 20260501204131 | 50 | 164 | 1.7 | 7.0 | 0.00 | 0.00 | 0.00 | 48 | 1011.0 |
| 20260501203930 | 51 | 159 | 0.9 | 7.0 | 0.00 | 0.00 | 0.00 | 48 | 1011.0 |
| 20260501203730 | 51 | 294 | 0.9 | 7.0 | 0.00 | 0.00 | 0.00 | 48 | 1010.9 |
| 20260501203530 | 51 | 358 | 0.9 | 7.0 | 0.00 | 0.00 | 0.00 | 49 | 1010.9 |
| 20260501203330 | 51 | 228 | 1.7 | 7.0 | 0.00 | 0.00 | 0.00 | 49 | 1010.9 |
| 20260501203129 | 51 | 146 | 1.7 | 7.0 | 0.00 | 0.00 | 0.00 | 48 | 1010.9 |
| 20260501202929 | 51 | 137 | 0.9 | 7.0 | 0.00 | 0.00 | 0.00 | 49 | 1010.9 |
| 20260501202729 | 51 | 156 | 1.7 | 7.0 | 0.00 | 0.00 | 0.00 | 49 | 1010.9 |
| 20260501202528 | 51 | 172 | 1.7 | 7.0 | 0.00 | 0.00 | 0.00 | 49 | 1010.9 |
| 20260501202328 | 51 | 190 | 1.7 | 6.1 | 0.00 | 0.00 | 0.00 | 48 | 1010.9 |
| 20260501202128 | 51 | 120 | 1.7 | 6.1 | 0.00 | 0.00 | 0.00 | 49 | 1010.9 |
| 20260501201927 | 51 | 144 | 1.7 | 6.1 | 0.00 | 0.00 | 0.00 | 49 | 1010.8 |
| 20260501201727 | 52 | 30 | 1.7 | 6.1 | 0.00 | 0.00 | 0.00 | 49 | 1010.8 |
| 20260501201527 | 52 | 88 | 0.9 | 6.1 | 0.00 | 0.00 | 0.00 | 48 | 1010.8 |
| 20260501201327 | 52 | 57 | 1.7 | 6.1 | 0.00 | 0.00 | 0.00 | 48 | 1010.8 |
| 20260501201126 | 52 | 25 | 0.9 | 3.5 | 0.00 | 0.00 | 0.00 | 48 | 1010.8 |
| 20260501200926 | 52 | 32 | 0.9 | 2.6 | 0.00 | 0.00 | 0.00 | 48 | 1010.7 |
| 20260501200726 | 52 | 290 | 0.9 | 2.6 | 0.00 | 0.00 | 0.00 | 48 | 1010.7 |
| 20260501200525 | 52 | 277 | 0.0 | 2.6 | 0.00 | 0.00 | 0.00 | 48 | 1010.7 |
| 20260501200325 | 52 | 269 | 0.9 | 5.2 | 0.00 | 0.00 | 0.00 | 48 | 1010.7 |
| 20260501200125 | 52 | 328 | 0.9 | 5.2 | 0.00 | 0.00 | 0.00 | 48 | 1010.8 |
| 20260501195924 | 52 | 10 | 0.0 | 5.2 | 0.00 | 0.00 | 0.00 | 48 | 1010.7 |